When you browse on this site, cookies collect data to enhance your experience and personalize the content and advertising you see.
Visit our Privacy Policy to learn more. By continuing to use the site, you agree to this use of cookies and data.
  • In United Kingdom
  • List of Countries
  • For 7 days
  • Water Temperature
  • Weather Map
  • Weather Widgets
  • user-avatar
    Login

    Hourly Weather Emona

    Today, 10 December, Tuesday

    Time Temperature Precipitation Wind Pressure Humidity
    00:00 +7°C° 0 mm 1 mps 759 mmHg 84%
    01:00 +7°C° 0 mm 1 mps 758 mmHg 84%
    02:00 +6°C° 0 mm 1 mps 758 mmHg 84%
    03:00 +6°C° 0 mm 1 mps 758 mmHg 84%
    04:00 +6°C° 0 mm 1 mps 758 mmHg 84%
    05:00 +6°C° 0 mm 1 mps 758 mmHg 84%
    06:00 +6°C° 0 mm 1 mps 758 mmHg 84%
    07:00 +6°C° 0 mm 1 mps 758 mmHg 84%
    08:00 +6°C° 0 mm 1 mps 758 mmHg 85%
    09:00 +7°C° 0 mm 1 mps 758 mmHg 80%
    10:00 +9°C° 0 mm 1 mps 758 mmHg 75%
    11:00 +10°C° 0 mm 1 mps 758 mmHg 69%
    12:00 +11°C° 0 mm 1 mps 758 mmHg 68%
    13:00 +12°C° 0 mm 1 mps 758 mmHg 67%
    14:00 +12°C° 0 mm 1 mps 758 mmHg 66%
    15:00 +11°C° 0 mm 1 mps 758 mmHg 71%
    16:00 +10°C° 0 mm 1 mps 758 mmHg 76%
    17:00 +9°C° 0 mm 1 mps 758 mmHg 80%
    18:00 +9°C° 0 mm 1 mps 759 mmHg 81%
    19:00 +9°C° 0 mm 1 mps 759 mmHg 82%
    20:00 +8°C° 0 mm 0 mps 759 mmHg 82%
    21:00 +9°C° 0 mm 1 mps 760 mmHg 82%
    22:00 +9°C° 0 mm 1 mps 760 mmHg 83%
    23:00 +9°C° 0 mm 1 mps 760 mmHg 83%

    Tomorrow, 11 December, Wednesday

    Time Temperature Precipitation Wind Pressure Humidity
    00:00 +8°C° 0 mm 1 mps 760 mmHg 84%
    01:00 +8°C° 0 mm 1 mps 760 mmHg 85%
    02:00 +7°C° 0 mm 2 mps 760 mmHg 86%
    03:00 +7°C° 0 mm 2 mps 760 mmHg 87%
    04:00 +6°C° 0 mm 2 mps 760 mmHg 88%
    05:00 +5°C° 0 mm 3 mps 760 mmHg 89%
    06:00 +5°C° 0 mm 3 mps 760 mmHg 90%
    07:00 +5°C° 0 mm 3 mps 760 mmHg 91%
    08:00 +7°C° 0 mm 3 mps 760 mmHg 91%
    09:00 +8°C° 0 mm 3 mps 760 mmHg 87%
    10:00 +8°C° 0 mm 4 mps 760 mmHg 83%
    11:00 +11°C° 0 mm 4 mps 760 mmHg 79%
    12:00 +10°C° 0 mm 5 mps 759 mmHg 77%
    13:00 +12°C° 0 mm 5 mps 759 mmHg 75%
    14:00 +11°C° 0 mm 6 mps 759 mmHg 74%
    15:00 +12°C° 0 mm 5 mps 759 mmHg 79%
    16:00 +10°C° 0 mm 5 mps 758 mmHg 84%
    17:00 +10°C° 0 mm 4 mps 758 mmHg 89%
    18:00 +10°C° 0.1 mm 4 mps 758 mmHg 89%
    19:00 +10°C° 0.1 mm 4 mps 759 mmHg 89%
    20:00 +9°C° 0.1 mm 5 mps 759 mmHg 89%
    21:00 +9°C° 0.1 mm 5 mps 758 mmHg 89%
    22:00 +9°C° 0.1 mm 5 mps 758 mmHg 90%
    23:00 +10°C° 0.1 mm 4 mps 758 mmHg 90%

    Day after tomorrow, 12 December, Thursday

    Time Temperature Precipitation Wind Pressure Humidity
    00:00 +10°C° 0.1 mm 4 mps 758 mmHg 91%
    01:00 +10°C° 0.1 mm 4 mps 757 mmHg 91%
    02:00 +8°C° 0.1 mm 4 mps 757 mmHg 91%
    03:00 +8°C° 0 mm 4 mps 756 mmHg 92%
    04:00 +8°C° 0 mm 4 mps 756 mmHg 92%
    05:00 +8°C° 0 mm 4 mps 756 mmHg 93%
    06:00 +8°C° 0 mm 4 mps 756 mmHg 92%
    07:00 +8°C° 0 mm 4 mps 756 mmHg 92%
    08:00 +8°C° 0 mm 4 mps 756 mmHg 92%
    09:00 +10°C° 0 mm 4 mps 756 mmHg 88%
    10:00 +11°C° 0 mm 4 mps 755 mmHg 84%
    11:00 +12°C° 0 mm 4 mps 755 mmHg 80%
    12:00 +12°C° 0 mm 4 mps 755 mmHg 79%
    13:00 +12°C° 0 mm 4 mps 755 mmHg 78%
    14:00 +12°C° 0 mm 4 mps 754 mmHg 77%
    15:00 +12°C° 0 mm 4 mps 754 mmHg 79%
    16:00 +12°C° 0 mm 4 mps 754 mmHg 82%
    17:00 +11°C° 0 mm 3 mps 754 mmHg 84%
    18:00 +11°C° 0 mm 3 mps 754 mmHg 85%
    19:00 +11°C° 0 mm 3 mps 754 mmHg 86%
    20:00 +12°C° 0 mm 2 mps 755 mmHg 87%
    21:00 +12°C° 0 mm 2 mps 754 mmHg 88%
    22:00 +10°C° 0 mm 2 mps 754 mmHg 88%
    23:00 +10°C° 0 mm 2 mps 754 mmHg 89%

    13 December, Friday

    Time Temperature Precipitation Wind Pressure Humidity
    00:00 +10°C° 0 mm 2 mps 754 mmHg 89%
    01:00 +10°C° 0 mm 2 mps 754 mmHg 88%
    02:00 +10°C° 0 mm 2 mps 753 mmHg 88%
    03:00 +10°C° 0 mm 2 mps 753 mmHg 87%
    04:00 +11°C° 0 mm 1 mps 753 mmHg 87%
    05:00 +11°C° 0 mm 1 mps 753 mmHg 87%
    06:00 +11°C° 0 mm 1 mps 753 mmHg 86%
    07:00 +11°C° 0 mm 1 mps 753 mmHg 86%
    08:00 +11°C° 0 mm 1 mps 753 mmHg 86%
    09:00 +12°C° 0 mm 1 mps 753 mmHg 82%
    10:00 +13°C° 0 mm 1 mps 753 mmHg 77%
    11:00 +13°C° 0 mm 1 mps 753 mmHg 73%
    12:00 +14°C° 0 mm 2 mps 752 mmHg 72%
    13:00 +14°C° 0 mm 2 mps 752 mmHg 71%
    14:00 +14°C° 0 mm 2 mps 751 mmHg 69%
    15:00 +14°C° 0 mm 2 mps 751 mmHg 74%
    16:00 +13°C° 0 mm 2 mps 751 mmHg 78%
    17:00 +11°C° 0 mm 3 mps 751 mmHg 83%
    18:00 +11°C° 0 mm 3 mps 751 mmHg 85%
    19:00 +11°C° 0 mm 3 mps 751 mmHg 87%
    20:00 +10°C° 0 mm 3 mps 751 mmHg 89%
    21:00 +10°C° 0.1 mm 3 mps 751 mmHg 88%
    22:00 +10°C° 0.1 mm 3 mps 751 mmHg 87%
    23:00 +10°C° 0.1 mm 4 mps 751 mmHg 86%

    14 December, Saturday

    Time Temperature Precipitation Wind Pressure Humidity
    00:00 +10°C° 0 mm 4 mps 751 mmHg 86%
    01:00 +10°C° 0 mm 4 mps 750 mmHg 86%
    02:00 +10°C° 0 mm 4 mps 750 mmHg 85%
    03:00 +10°C° 0 mm 4 mps 750 mmHg 86%
    04:00 +10°C° 0 mm 4 mps 750 mmHg 87%
    05:00 +9°C° 0 mm 3 mps 750 mmHg 87%
    06:00 +9°C° 0 mm 3 mps 751 mmHg 87%
    07:00 +9°C° 0 mm 3 mps 751 mmHg 87%
    08:00 +9°C° 0 mm 3 mps 751 mmHg 88%
    09:00 +11°C° 0 mm 3 mps 752 mmHg 81%
    10:00 +13°C° 0 mm 4 mps 752 mmHg 74%
    11:00 +14°C° 0 mm 4 mps 752 mmHg 68%
    12:00 +15°C° 0 mm 4 mps 753 mmHg 67%
    13:00 +15°C° 0 mm 4 mps 753 mmHg 66%
    14:00 +17°C° 0 mm 4 mps 753 mmHg 65%
    15:00 +15°C° 0 mm 4 mps 753 mmHg 69%
    16:00 +14°C° 0 mm 3 mps 754 mmHg 73%
    17:00 +13°C° 0 mm 3 mps 754 mmHg 78%
    18:00 +13°C° 0 mm 2 mps 755 mmHg 80%
    19:00 +13°C° 0 mm 2 mps 756 mmHg 83%
    20:00 +12°C° 0 mm 2 mps 756 mmHg 85%
    21:00 +12°C° 0 mm 2 mps 757 mmHg 85%
    22:00 +12°C° 0 mm 2 mps 758 mmHg 84%
    23:00 +12°C° 0 mm 1 mps 758 mmHg 84%

    15 December, Sunday

    Time Temperature Precipitation Wind Pressure Humidity
    00:00 +12°C° 0 mm 1 mps 759 mmHg 84%
    01:00 +12°C° 0 mm 1 mps 759 mmHg 84%
    02:00 +12°C° 0 mm 1 mps 760 mmHg 84%
    03:00 +12°C° 0 mm 1 mps 760 mmHg 84%
    04:00 +12°C° 0 mm 1 mps 761 mmHg 84%
    05:00 +12°C° 0 mm 1 mps 761 mmHg 84%
    06:00 +12°C° 0 mm 1 mps 762 mmHg 84%
    07:00 +11°C° 0 mm 1 mps 762 mmHg 84%
    08:00 +11°C° 0 mm 1 mps 763 mmHg 83%
    09:00 +12°C° 0 mm 1 mps 763 mmHg 79%
    10:00 +13°C° 0 mm 1 mps 764 mmHg 74%
    11:00 +14°C° 0 mm 1 mps 764 mmHg 69%
    12:00 +15°C° 0 mm 1 mps 764 mmHg 67%
    13:00 +15°C° 0 mm 1 mps 764 mmHg 64%
    14:00 +16°C° 0 mm 1 mps 764 mmHg 62%
    15:00 +15°C° 0 mm 1 mps 764 mmHg 67%
    16:00 +14°C° 0 mm 1 mps 765 mmHg 73%
    17:00 +13°C° 0 mm 1 mps 765 mmHg 78%
    18:00 +12°C° 0 mm 1 mps 766 mmHg 80%
    19:00 +12°C° 0 mm 1 mps 766 mmHg 82%
    20:00 +11°C° 0 mm 1 mps 766 mmHg 84%
    21:00 +11°C° 0 mm 1 mps 767 mmHg 85%
    22:00 +11°C° 0 mm 1 mps 767 mmHg 86%
    23:00 +10°C° 0 mm 0 mps 767 mmHg 86%
    Show more